Time,TemperatureF,DewpointF,PressureIn,WindDirection,WindDirectionDegrees,WindSpeedMPH,WindSpeedGustMPH,Humidity,HourlyPrecipIn,Conditions,Clouds,dailyrainin,SoftwareType,DateUTC
2013-08-24 00:04:00,-999.0,-99.9,26.54,North,-999,-999.0,-999.0,-999,0.00,,,0.00,weatherlink.com 1.10,2013-08-24 04:04:00,
2013-08-24 00:19:00,-999.0,-99.9,26.54,North,-999,-999.0,-999.0,-999,0.00,,,0.00,weatherlink.com 1.10,2013-08-24 04:19:00,
2013-08-24 00:34:00,-999.0,-99.9,26.55,North,-999,-999.0,-999.0,-999,0.00,,,0.00,weatherlink.com 1.10,2013-08-24 04:34:00,
2013-08-24 00:49:00,-999.0,-99.9,26.55,North,-999,-999.0,-999.0,-999,0.00,,,0.00,weatherlink.com 1.10,2013-08-24 04:49:00,
2013-08-24 01:04:00,-999.0,-99.9,26.55,North,-999,-999.0,-999.0,-999,0.00,,,0.00,weatherlink.com 1.10,2013-08-24 05:04:00,
2013-08-24 01:19:00,-999.0,-99.9,26.55,North,-999,-999.0,-999.0,-999,0.00,,,0.00,weatherlink.com 1.10,2013-08-24 05:19:00,
2013-08-24 01:34:00,-999.0,-99.9,26.55,North,-999,-999.0,-999.0,-999,0.00,,,0.00,weatherlink.com 1.10,2013-08-24 05:34:00,
2013-08-24 01:49:00,-999.0,-99.9,26.55,North,-999,-999.0,-999.0,-999,0.00,,,0.00,weatherlink.com 1.10,2013-08-24 05:49:00,
2013-08-24 02:04:00,-999.0,-99.9,26.54,North,-999,-999.0,-999.0,-999,0.00,,,0.00,weatherlink.com 1.10,2013-08-24 06:04:00,
2013-08-24 02:20:00,-999.0,-99.9,26.54,North,-999,-999.0,-999.0,-999,0.00,,,0.00,weatherlink.com 1.10,2013-08-24 06:20:00,
2013-08-24 02:35:00,-999.0,-99.9,26.54,North,-999,-999.0,-999.0,-999,0.00,,,0.00,weatherlink.com 1.10,2013-08-24 06:35:00,
2013-08-24 02:50:00,-999.0,-99.9,26.54,North,-999,-999.0,-999.0,-999,0.00,,,0.00,weatherlink.com 1.10,2013-08-24 06:50:00,
2013-08-24 03:05:00,-999.0,-99.9,26.54,North,-999,-999.0,-999.0,-999,0.00,,,0.00,weatherlink.com 1.10,2013-08-24 07:05:00,
2013-08-24 03:20:00,-999.0,-99.9,26.55,North,-999,-999.0,-999.0,-999,0.00,,,0.00,weatherlink.com 1.10,2013-08-24 07:20:00,
2013-08-24 03:35:00,-999.0,-99.9,26.55,North,-999,-999.0,-999.0,-999,0.00,,,0.00,weatherlink.com 1.10,2013-08-24 07:35:00,
2013-08-24 03:50:00,-999.0,-99.9,26.55,North,-999,-999.0,-999.0,-999,0.00,,,0.00,weatherlink.com 1.10,2013-08-24 07:50:00,
2013-08-24 04:05:00,-999.0,-99.9,26.55,North,-999,-999.0,-999.0,-999,0.00,,,0.00,weatherlink.com 1.10,2013-08-24 08:05:00,
2013-08-24 04:20:00,-999.0,-99.9,26.56,North,-999,-999.0,-999.0,-999,0.00,,,0.00,weatherlink.com 1.10,2013-08-24 08:20:00,
2013-08-24 04:35:00,-999.0,-99.9,26.56,North,-999,-999.0,-999.0,-999,0.00,,,0.00,weatherlink.com 1.10,2013-08-24 08:35:00,
2013-08-24 04:50:00,-999.0,-99.9,26.57,North,-999,-999.0,-999.0,-999,0.00,,,0.00,weatherlink.com 1.10,2013-08-24 08:50:00,
2013-08-24 05:05:00,-999.0,-99.9,26.57,North,-999,-999.0,-999.0,-999,0.00,,,0.00,weatherlink.com 1.10,2013-08-24 09:05:00,
2013-08-24 05:20:00,-999.0,-99.9,26.57,North,-999,-999.0,-999.0,-999,0.00,,,0.00,weatherlink.com 1.10,2013-08-24 09:20:00,
2013-08-24 05:35:00,-999.0,-99.9,26.57,North,-999,-999.0,-999.0,-999,0.00,,,0.00,weatherlink.com 1.10,2013-08-24 09:35:00,
2013-08-24 05:51:00,-999.0,-99.9,26.58,North,-999,-999.0,-999.0,-999,0.00,,,0.00,weatherlink.com 1.10,2013-08-24 09:51:00,
2013-08-24 06:06:00,-999.0,-99.9,26.58,North,-999,-999.0,-999.0,-999,0.00,,,0.00,weatherlink.com 1.10,2013-08-24 10:06:00,
2013-08-24 06:21:00,-999.0,-99.9,26.59,North,-999,-999.0,-999.0,-999,0.00,,,0.00,weatherlink.com 1.10,2013-08-24 10:21:00,
2013-08-24 06:36:00,-999.0,-99.9,26.59,North,-999,-999.0,-999.0,-999,0.00,,,0.00,weatherlink.com 1.10,2013-08-24 10:36:00,
2013-08-24 06:51:00,-999.0,-99.9,26.60,North,-999,-999.0,-999.0,-999,0.00,,,0.00,weatherlink.com 1.10,2013-08-24 10:51:00,
2013-08-24 07:06:00,-999.0,-99.9,26.60,North,-999,-999.0,-999.0,-999,0.00,,,0.00,weatherlink.com 1.10,2013-08-24 11:06:00,
2013-08-24 07:21:00,-999.0,-99.9,26.61,North,-999,-999.0,-999.0,-999,0.00,,,0.00,weatherlink.com 1.10,2013-08-24 11:21:00,
2013-08-24 07:36:00,-999.0,-99.9,26.61,North,-999,-999.0,-999.0,-999,0.00,,,0.00,weatherlink.com 1.10,2013-08-24 11:36:00,
2013-08-24 07:51:00,58.0,57.0,26.61,North,360,0.0,2.0,95,0.00,,,0.00,weatherlink.com 1.10,2013-08-24 11:51:00,
2013-08-24 08:06:00,58.1,57.0,26.62,North,360,0.0,2.0,95,0.00,,,0.00,weatherlink.com 1.10,2013-08-24 12:06:00,
2013-08-24 08:21:00,58.9,58.0,26.63,North,360,0.0,1.0,96,0.00,,,0.00,weatherlink.com 1.10,2013-08-24 12:21:00,
2013-08-24 08:36:00,59.2,58.0,26.63,North,360,0.0,2.0,95,0.00,,,0.00,weatherlink.com 1.10,2013-08-24 12:36:00,
2013-08-24 08:51:00,60.2,58.0,26.63,North,360,0.0,5.0,91,0.00,,,0.00,weatherlink.com 1.10,2013-08-24 12:51:00,
2013-08-24 09:06:00,62.4,58.0,26.64,NNE,26,2.0,6.0,84,0.00,,,0.00,weatherlink.com 1.10,2013-08-24 13:06:00,
2013-08-24 09:21:00,63.2,57.0,26.64,NNE,28,2.0,5.0,79,0.00,,,0.00,weatherlink.com 1.10,2013-08-24 13:21:00,
2013-08-24 09:36:00,63.7,56.0,26.64,NNE,28,2.0,3.0,75,0.00,,,0.00,weatherlink.com 1.10,2013-08-24 13:36:00,
2013-08-24 09:51:00,63.9,55.0,26.64,NNE,27,3.0,7.0,72,0.00,,,0.00,weatherlink.com 1.10,2013-08-24 13:51:00,
2013-08-24 10:06:00,64.3,56.0,26.64,NNE,22,0.0,7.0,74,0.00,,,0.00,weatherlink.com 1.10,2013-08-24 14:06:00,
2013-08-24 10:22:00,65.3,56.0,26.64,NNE,18,1.0,4.0,72,0.00,,,0.00,weatherlink.com 1.10,2013-08-24 14:22:00,
2013-08-24 10:37:00,65.8,54.0,26.65,NE,43,3.0,6.0,66,0.00,,,0.00,weatherlink.com 1.10,2013-08-24 14:37:00,
2013-08-24 10:52:00,65.8,54.0,26.66,East,94,3.0,8.0,66,0.00,,,0.00,weatherlink.com 1.10,2013-08-24 14:52:00,
2013-08-24 11:07:00,66.1,56.0,26.66,ENE,58,4.0,8.0,70,0.00,,,0.00,weatherlink.com 1.10,2013-08-24 15:07:00,
2013-08-24 11:22:00,65.6,55.0,26.66,NNE,32,2.0,12.0,69,0.00,,,0.00,weatherlink.com 1.10,2013-08-24 15:22:00,
2013-08-24 11:37:00,66.6,53.0,26.66,North,349,1.0,8.0,62,0.00,,,0.00,weatherlink.com 1.10,2013-08-24 15:37:00,
2013-08-24 11:52:00,66.8,53.0,26.66,South,175,5.0,15.0,62,0.00,,,0.00,weatherlink.com 1.10,2013-08-24 15:52:00,
2013-08-24 12:07:00,66.8,51.0,26.66,NNW,340,4.0,11.0,58,0.00,,,0.00,weatherlink.com 1.10,2013-08-24 16:07:00,
2013-08-24 12:22:00,67.4,50.0,26.66,NE,40,5.0,7.0,54,0.00,,,0.00,weatherlink.com 1.10,2013-08-24 16:22:00,
2013-08-24 12:37:00,66.9,53.0,26.66,ENE,67,0.0,12.0,61,0.00,,,0.00,weatherlink.com 1.10,2013-08-24 16:37:00,
2013-08-24 12:52:00,67.1,53.0,26.66,SSE,148,2.0,11.0,60,0.00,,,0.00,weatherlink.com 1.10,2013-08-24 16:52:00,
2013-08-24 13:07:00,66.9,51.0,26.66,West,261,6.0,10.0,57,0.00,,,0.00,weatherlink.com 1.10,2013-08-24 17:07:00,
2013-08-24 13:22:00,67.6,51.0,26.66,NE,51,4.0,12.0,55,0.00,,,0.00,weatherlink.com 1.10,2013-08-24 17:22:00,
2013-08-24 13:37:00,67.8,52.0,26.66,SSE,165,5.0,11.0,57,0.00,,,0.00,weatherlink.com 1.10,2013-08-24 17:37:00,
2013-08-24 13:52:00,67.3,50.0,26.65,NNW,342,5.0,14.0,54,0.00,,,0.00,weatherlink.com 1.10,2013-08-24 17:52:00,
2013-08-24 14:07:00,67.6,52.0,26.66,North,351,6.0,10.0,58,0.00,,,0.00,weatherlink.com 1.10,2013-08-24 18:07:00,
2013-08-24 14:22:00,68.3,55.0,26.65,SSW,198,0.0,9.0,62,0.00,,,0.00,weatherlink.com 1.10,2013-08-24 18:22:00,
2013-08-24 14:37:00,68.9,54.0,26.65,ESE,118,8.0,12.0,59,0.00,,,0.00,weatherlink.com 1.10,2013-08-24 18:37:00,
2013-08-24 14:52:00,69.1,55.0,26.65,South,171,0.0,9.0,61,0.00,,,0.00,weatherlink.com 1.10,2013-08-24 18:52:00,
2013-08-24 15:07:00,69.8,54.0,26.65,SSE,159,5.0,9.0,58,0.00,,,0.00,weatherlink.com 1.10,2013-08-24 19:07:00,
2013-08-24 15:22:00,68.9,54.0,26.65,South,171,3.0,9.0,60,0.00,,,0.00,weatherlink.com 1.10,2013-08-24 19:22:00,
2013-08-24 15:37:00,69.6,56.0,26.66,WNW,286,3.0,9.0,62,0.00,,,0.00,weatherlink.com 1.10,2013-08-24 19:37:00,
2013-08-24 15:52:00,69.4,53.0,26.66,SE,128,0.0,9.0,57,0.00,,,0.00,weatherlink.com 1.10,2013-08-24 19:52:00,
2013-08-24 16:07:00,69.1,54.0,26.66,SE,142,0.0,11.0,59,0.00,,,0.00,weatherlink.com 1.10,2013-08-24 20:07:00,
2013-08-24 16:22:00,69.4,53.0,26.66,ESE,122,1.0,10.0,57,0.00,,,0.00,weatherlink.com 1.10,2013-08-24 20:22:00,
2013-08-24 16:37:00,69.4,54.0,26.66,West,271,3.0,9.0,58,0.00,,,0.00,weatherlink.com 1.10,2013-08-24 20:37:00,
2013-08-24 16:52:00,69.1,53.0,26.66,South,189,1.0,10.0,57,0.00,,,0.00,weatherlink.com 1.10,2013-08-24 20:52:00,
2013-08-24 17:07:00,69.4,53.0,26.65,ESE,119,8.0,8.0,57,0.00,,,0.00,weatherlink.com 1.10,2013-08-24 21:07:00,
2013-08-24 17:22:00,69.1,54.0,26.66,South,191,5.0,11.0,58,0.00,,,0.00,weatherlink.com 1.10,2013-08-24 21:22:00,
2013-08-24 17:37:00,69.1,54.0,26.66,South,184,2.0,11.0,60,0.00,,,0.00,weatherlink.com 1.10,2013-08-24 21:37:00,
2013-08-24 17:52:00,69.1,55.0,26.66,NNE,32,2.0,7.0,61,0.00,,,0.00,weatherlink.com 1.10,2013-08-24 21:52:00,
2013-08-24 18:07:00,68.8,54.0,26.66,ESE,106,0.0,7.0,59,0.00,,,0.00,weatherlink.com 1.10,2013-08-24 22:07:00,
2013-08-24 18:22:00,68.4,54.0,26.66,ESE,119,0.0,7.0,61,0.00,,,0.00,weatherlink.com 1.10,2013-08-24 22:22:00,
2013-08-24 18:37:00,68.3,54.0,26.66,ENE,77,0.0,8.0,60,0.00,,,0.00,weatherlink.com 1.10,2013-08-24 22:37:00,
2013-08-24 18:52:00,67.9,54.0,26.65,ENE,63,2.0,4.0,61,0.00,,,0.00,weatherlink.com 1.10,2013-08-24 22:52:00,
2013-08-24 19:07:00,67.3,55.0,26.65,ESE,111,0.0,3.0,65,0.00,,,0.00,weatherlink.com 1.10,2013-08-24 23:07:00,
2013-08-24 19:22:00,66.8,54.0,26.66,ESE,113,0.0,3.0,64,0.00,,,0.00,weatherlink.com 1.10,2013-08-24 23:22:00,
2013-08-24 19:37:00,65.6,55.0,26.66,ESE,110,0.0,5.0,68,0.00,,,0.00,weatherlink.com 1.10,2013-08-24 23:37:00,
2013-08-24 19:52:00,64.7,55.0,26.66,ESE,110,1.0,3.0,71,0.00,,,0.00,weatherlink.com 1.10,2013-08-24 23:52:00,
2013-08-24 20:07:00,-999.0,-99.9,26.67,North,-999,-999.0,-999.0,-999,0.00,,,0.00,weatherlink.com 1.10,2013-08-25 00:07:00,
2013-08-24 20:22:00,-999.0,-99.9,26.67,North,-999,-999.0,-999.0,-999,0.00,,,0.00,weatherlink.com 1.10,2013-08-25 00:22:00,
2013-08-24 20:37:00,-999.0,-99.9,26.67,North,-999,-999.0,-999.0,-999,0.00,,,0.00,weatherlink.com 1.10,2013-08-25 00:37:00,
2013-08-24 20:52:00,-999.0,-99.9,26.67,North,-999,-999.0,-999.0,-999,0.00,,,0.00,weatherlink.com 1.10,2013-08-25 00:52:00,
2013-08-24 21:07:00,-999.0,-99.9,26.68,North,-999,-999.0,-999.0,-999,0.00,,,0.00,weatherlink.com 1.10,2013-08-25 01:07:00,
2013-08-24 21:23:00,-999.0,-99.9,26.68,North,-999,-999.0,-999.0,-999,0.00,,,0.00,weatherlink.com 1.10,2013-08-25 01:23:00,
2013-08-24 21:38:00,-999.0,-99.9,26.69,North,-999,-999.0,-999.0,-999,0.00,,,0.00,weatherlink.com 1.10,2013-08-25 01:38:00,
2013-08-24 21:53:00,-999.0,-99.9,26.69,North,-999,-999.0,-999.0,-999,0.00,,,0.00,weatherlink.com 1.10,2013-08-25 01:53:00,
2013-08-24 22:08:00,-999.0,-99.9,26.69,North,-999,-999.0,-999.0,-999,0.00,,,0.00,weatherlink.com 1.10,2013-08-25 02:08:00,
2013-08-24 22:23:00,-999.0,-99.9,26.70,North,-999,-999.0,-999.0,-999,0.00,,,0.00,weatherlink.com 1.10,2013-08-25 02:23:00,
2013-08-24 22:38:00,-999.0,-99.9,26.70,North,-999,-999.0,-999.0,-999,0.00,,,0.00,weatherlink.com 1.10,2013-08-25 02:38:00,
2013-08-24 22:53:00,-999.0,-99.9,26.71,North,-999,-999.0,-999.0,-999,0.00,,,0.00,weatherlink.com 1.10,2013-08-25 02:53:00,
2013-08-24 23:23:00,-999.0,-99.9,26.71,North,-999,-999.0,-999.0,-999,0.00,,,0.00,weatherlink.com 1.10,2013-08-25 03:23:00,
2013-08-24 23:38:00,-999.0,-99.9,26.71,North,-999,-999.0,-999.0,-999,0.00,,,0.00,weatherlink.com 1.10,2013-08-25 03:38:00,
2013-08-24 23:53:00,-999.0,-99.9,26.72,North,-999,-999.0,-999.0,-999,0.00,,,0.00,weatherlink.com 1.10,2013-08-25 03:53:00,